TimeCDT,TemperatureF,Dew PointF,Humidity,Sea Level PressureIn,VisibilityMPH,Wind Direction,Wind SpeedMPH,Gust SpeedMPH,PrecipitationIn,Events,Conditions,WindDirDegrees,DateUTC
12:15 AM,65.5,52.3,62,30.10,10.0,WNW,4.6,12.7,N/A,Thunderstorm,Scattered Clouds,290,2013-06-15 05:15:00
12:35 AM,63.5,54.1,72,30.10,10.0,North,8.1,-,N/A,,Mostly Cloudy,360,2013-06-15 05:35:00
12:55 AM,61.5,53.8,76,30.10,10.0,NNE,4.6,-,N/A,Rain,Rain,30,2013-06-15 05:55:00
1:15 AM,59.9,51.6,74,30.06,10.0,North,17.3,23.0,0.01,Rain,Light Rain,360,2013-06-15 06:15:00
1:35 AM,60.4,50.7,70,30.04,10.0,North,12.7,-,0.01,,Scattered Clouds,360,2013-06-15 06:35:00
1:55 AM,59.5,51.1,74,30.04,10.0,North,15.0,-,0.01,,Clear,350,2013-06-15 06:55:00
2:15 AM,59.9,50.9,72,30.04,10.0,North,18.4,-,N/A,,Clear,350,2013-06-15 07:15:00
2:35 AM,61.5,50.2,66,30.05,10.0,NNW,16.1,21.9,N/A,,Mostly Cloudy,340,2013-06-15 07:35:00
2:55 AM,61.7,49.5,64,30.03,10.0,North,12.7,-,N/A,,Mostly Cloudy,360,2013-06-15 07:55:00
3:15 AM,61.7,49.1,63,30.01,10.0,North,11.5,-,N/A,,Clear,10,2013-06-15 08:15:00
3:35 AM,59.9,49.5,68,30.00,10.0,North,11.5,-,N/A,,Clear,10,2013-06-15 08:35:00
3:55 AM,56.8,50.0,78,30.00,10.0,NNE,5.8,-,N/A,,Clear,30,2013-06-15 08:55:00
4:15 AM,58.8,48.9,70,30.02,10.0,Calm,Calm,-,N/A,,Clear,0,2013-06-15 09:15:00
4:35 AM,56.5,48.6,75,30.02,10.0,East,3.5,-,N/A,,Clear,90,2013-06-15 09:35:00
4:55 AM,54.9,50.0,84,30.04,10.0,WNW,6.9,-,N/A,,Clear,300,2013-06-15 09:55:00
5:15 AM,54.7,48.9,81,30.05,10.0,WNW,5.8,-,N/A,,Clear,300,2013-06-15 10:15:00
5:35 AM,53.6,48.2,82,30.06,10.0,WNW,4.6,-,N/A,,Clear,300,2013-06-15 10:35:00
5:55 AM,53.8,48.2,81,30.07,10.0,NNW,5.8,-,N/A,,Clear,340,2013-06-15 10:55:00
6:15 AM,53.2,48.2,83,30.08,10.0,NNW,6.9,-,N/A,,Clear,340,2013-06-15 11:15:00
6:35 AM,53.6,48.2,82,30.08,10.0,NW,8.1,-,N/A,,Clear,320,2013-06-15 11:35:00
6:55 AM,54.1,47.8,79,30.08,10.0,NW,9.2,-,N/A,,Clear,320,2013-06-15 11:55:00
7:15 AM,54.3,48.2,80,30.09,10.0,NW,9.2,-,N/A,,Clear,310,2013-06-15 12:15:00
7:35 AM,54.9,48.9,80,30.09,10.0,NW,11.5,-,N/A,,Clear,310,2013-06-15 12:35:00
7:55 AM,55.8,50.0,81,30.10,10.0,NW,12.7,-,N/A,,Clear,320,2013-06-15 12:55:00
8:15 AM,56.7,50.9,81,30.09,10.0,NW,10.4,-,N/A,,Clear,320,2013-06-15 13:15:00
8:35 AM,57.6,51.4,80,30.09,10.0,NW,13.8,-,N/A,,Clear,320,2013-06-15 13:35:00
8:55 AM,59.4,52.2,77,30.10,10.0,NW,13.8,-,N/A,,Clear,320,2013-06-15 13:55:00
9:15 AM,61.3,52.7,73,30.10,10.0,NNW,15.0,-,N/A,,Clear,340,2013-06-15 14:15:00
9:35 AM,61.9,52.9,72,30.11,10.0,NNW,11.5,-,N/A,,Clear,340,2013-06-15 14:35:00
9:55 AM,62.6,53.8,73,30.11,10.0,North,11.5,-,N/A,,Scattered Clouds,10,2013-06-15 14:55:00
10:15 AM,63.0,54.0,72,30.12,10.0,North,9.2,-,N/A,,Mostly Cloudy,350,2013-06-15 15:15:00
10:35 AM,63.5,54.0,71,30.12,10.0,North,11.5,-,N/A,,Mostly Cloudy,10,2013-06-15 15:35:00
10:55 AM,64.4,53.6,68,30.12,10.0,North,9.2,-,N/A,,Mostly Cloudy,10,2013-06-15 15:55:00
11:15 AM,65.5,53.4,65,30.12,10.0,North,11.5,-,N/A,,Mostly Cloudy,10,2013-06-15 16:15:00
11:35 AM,65.1,53.4,66,30.11,10.0,NNW,12.7,17.3,N/A,,Mostly Cloudy,330,2013-06-15 16:35:00
11:55 AM,67.5,53.2,60,30.11,10.0,North,10.4,16.1,N/A,,Scattered Clouds,10,2013-06-15 16:55:00
12:15 PM,67.3,52.9,60,30.11,10.0,NNE,10.4,-,N/A,,Scattered Clouds,20,2013-06-15 17:15:00
12:35 PM,67.3,52.5,59,30.11,10.0,NNE,5.8,-,N/A,,Clear,20,2013-06-15 17:35:00
12:55 PM,68.2,52.2,56,30.10,10.0,NNE,6.9,-,N/A,,Clear,30,2013-06-15 17:55:00
1:15 PM,69.6,52.3,54,30.10,10.0,NNE,5.8,-,N/A,,Clear,20,2013-06-15 18:15:00
1:35 PM,71.4,52.0,50,30.10,10.0,ENE,8.1,-,N/A,,Clear,60,2013-06-15 18:35:00
1:55 PM,71.8,52.2,50,30.09,10.0,Calm,Calm,-,N/A,,Clear,0,2013-06-15 18:55:00
2:15 PM,72.7,51.4,47,30.10,10.0,ENE,4.6,-,N/A,,Clear,70,2013-06-15 19:15:00
2:35 PM,73.6,50.9,45,30.08,10.0,East,3.5,-,N/A,,Clear,80,2013-06-15 19:35:00
2:55 PM,74.7,50.5,43,30.08,10.0,Calm,Calm,-,N/A,,Clear,0,2013-06-15 19:55:00
3:15 PM,74.5,50.2,42,30.08,10.0,Calm,Calm,-,N/A,,Clear,0,2013-06-15 20:15:00
3:35 PM,77.4,51.3,40,30.07,10.0,ENE,6.9,-,N/A,,Scattered Clouds,60,2013-06-15 20:35:00
3:55 PM,75.2,51.1,43,30.06,5.0,ENE,3.5,-,N/A,,Haze,70,2013-06-15 20:55:00
4:15 PM,75.4,49.6,40,30.06,7.0,SSE,5.8,-,N/A,,Scattered Clouds,150,2013-06-15 21:15:00
4:35 PM,77.2,50.0,38,30.05,10.0,East,8.1,-,N/A,,Scattered Clouds,90,2013-06-15 21:35:00
4:55 PM,78.6,51.3,38,30.04,10.0,East,10.4,-,N/A,,Scattered Clouds,100,2013-06-15 21:55:00
5:15 PM,76.8,50.7,40,30.04,10.0,ENE,9.2,-,N/A,,Scattered Clouds,70,2013-06-15 22:15:00
5:35 PM,76.8,50.2,39,30.04,10.0,East,4.6,-,N/A,,Scattered Clouds,90,2013-06-15 22:35:00
5:55 PM,76.1,50.2,40,30.04,10.0,East,8.1,-,N/A,,Scattered Clouds,80,2013-06-15 22:55:00
6:15 PM,75.2,51.6,44,30.06,7.0,NE,10.4,-,N/A,,Scattered Clouds,40,2013-06-15 23:15:00
6:35 PM,74.3,52.2,46,30.06,10.0,NE,12.7,-,N/A,,Scattered Clouds,40,2013-06-15 23:35:00
6:55 PM,73.4,51.8,47,30.05,10.0,NNE,17.3,20.7,N/A,,Scattered Clouds,20,2013-06-15 23:55:00
7:15 PM,72.5,51.8,48,30.06,10.0,NNE,10.4,-,N/A,Rain-Thunderstorm,Light Thunderstorms and Rain,20,2013-06-16 00:15:00
7:35 PM,72.1,36.7,27,30.03,10.0,East,17.3,25.3,N/A,Rain,Light Rain,80,2013-06-16 00:35:00
7:55 PM,74.7,37.4,26,30.01,10.0,East,15.0,24.2,N/A,,Scattered Clouds,90,2013-06-16 00:55:00
8:15 PM,74.7,39.0,28,30.01,10.0,SSE,5.8,-,N/A,,Clear,150,2013-06-16 01:15:00
8:35 PM,72.1,44.4,37,30.03,10.0,SSE,10.4,-,N/A,,Clear,160,2013-06-16 01:35:00
8:55 PM,69.6,46.6,44,30.04,10.0,SE,13.8,-,N/A,,Clear,140,2013-06-16 01:55:00
9:15 PM,67.8,50.2,53,30.05,10.0,ESE,9.2,-,N/A,,Clear,120,2013-06-16 02:15:00
9:35 PM,65.7,53.2,64,30.05,10.0,ESE,10.4,-,N/A,,Clear,120,2013-06-16 02:35:00
9:55 PM,64.8,53.2,66,30.05,10.0,ESE,4.6,-,N/A,,Clear,120,2013-06-16 02:55:00
10:15 PM,61.9,52.7,72,30.07,10.0,ESE,6.9,-,N/A,,Clear,120,2013-06-16 03:15:00
10:35 PM,60.8,52.7,75,30.08,10.0,SE,6.9,-,N/A,,Clear,130,2013-06-16 03:35:00
10:55 PM,60.1,52.7,77,30.08,10.0,ESE,5.8,-,N/A,,Clear,110,2013-06-16 03:55:00
11:15 PM,58.8,52.7,80,30.09,10.0,SE,5.8,-,N/A,,Clear,130,2013-06-16 04:15:00
11:35 PM,59.5,52.7,78,30.08,10.0,SE,3.5,-,N/A,,Clear,140,2013-06-16 04:35:00
11:55 PM,56.5,51.8,84,30.08,10.0,East,6.9,-,N/A,,Clear,80,2013-06-16 04:55:00